Location: Lincoln
(40.8000°N, 96.6670°W)
Time: 15:40:50
(UTC-05:00)

BlueWalker 3 - Pass Details

Date: 04 February 2023
Orbit: 497 x 514 km, 53.2° (Epoch: 28 March)

Event Time Altitude Azimuth Distance (km) Brightness Sun altitude
Rises 18:30:14 0° 302° (WNW) 2,599 6.3 -8.5°
Reaches altitude 10° 18:33:27 10° 331° (NNW) 1,720 4.9 -9.1°
Maximum altitude 18:35:21 13° 360° (N) 1,536 4.3 -9.4°
Drops below altitude 10° 18:37:15 10° 29° (NNE) 1,726 4.3 -9.8°
Enters shadow 18:38:02 - 39° (NE) 1,894 4.4 -9.9°
